Home > Time Zones > World Clock > Weather > India > Theni > Past weeks

Flag for India Weather past 2 weeks in Theni, Tamil Nadu, India

Now
73 °F

Fog.


Feels Like: 72 °F
Forecast: 76 / 92 °F
Wind: 6 mph from Southwest

Location: Coimbatore / Peelamedu

Current Time: Aug 1, 2015 at 5:42:45 AM

Latest Report: Aug 1, 2015 at 4:30 AM


Visibility: 3 mi

Pressure: 29.86 "Hg

Humidity: 89%

Dew point: 70 °F

Location of TheniLocation

Historic Weather in Theni — Graph

°F

Theni temperature yesterday

Maximum temperature yesterday: 93 °F (at 2:30 PM)
Minimum temperature yesterday: 73 °F (at 5:00 AM)
Average temperature yesterday: 82 °F

Past Weeks' High & Low Weather Summary

 TemperatureHumidityPressure
High93 °F (Jul 31, 2:30 PM)94% (Jul 18, 5:30 AM)29.95 "Hg (Jul 18, 5:30 AM)
Low72 °F (Jul 18, 5:30 AM)44% (Jul 29, 1:00 PM)29.71 "Hg (Jul 17, 5:30 AM)
Average80 °F74%29.84 "Hg
* Reported Jul 17 5:30 AM — Aug 1 4:30 AM, Theni, Weather by CustomWeather, © 2015

Note: Actual official high and low records may vary slightly from our data, if they occured in-between our weather recording intervals... More about our weather records

Advertising

Theni weather history for previous 24 hours

 ConditionsComfort  
Time TempWeatherWind HumidityBarometerVisibility
4:30 AM
Sat, Aug 1
73 °FFog.6 mph89%29.86 "Hg3 mi
4:00 AM75 °FFog.8 mph89%29.86 "Hg3 mi
3:30 AM75 °FFog.6 mph89%29.86 "Hg3 mi
3:00 AM75 °FFog.6 mph89%29.86 "Hg3 mi
11:30 PM
Fri, Jul 31
77 °FPassing clouds.10 mph79%29.92 "Hg4 mi
11:00 PM77 °FPassing clouds.12 mph79%29.89 "Hg4 mi
10:30 PM77 °FPassing clouds.10 mph79%29.89 "Hg4 mi
10:00 PM77 °FPassing clouds.12 mph79%29.89 "Hg4 mi
9:30 PM79 °FPassing clouds.10 mph74%29.92 "Hg4 mi
9:00 PM79 °FPassing clouds.10 mph74%29.89 "Hg4 mi
8:30 PM79 °FPassing clouds.10 mph74%29.89 "Hg4 mi
8:00 PM81 °FPassing clouds.9 mph70%29.89 "Hg4 mi
7:30 PM79 °FPassing clouds.10 mph74%29.86 "Hg4 mi
7:00 PM81 °FScattered clouds.10 mph70%29.86 "Hg4 mi
6:30 PM82 °FScattered clouds.12 mph70%29.83 "Hg4 mi
6:00 PM84 °FScattered clouds.13 mph62%29.83 "Hg4 mi
5:30 PM86 °FScattered clouds.12 mph59%29.80 "Hg4 mi
5:00 PM90 °FScattered clouds.14 mph52%29.80 "Hg5 mi
4:30 PM91 °FPassing clouds.12 mph49%29.80 "Hg5 mi
4:00 PM91 °FPassing clouds.14 mph46%29.80 "Hg5 mi
3:30 PM91 °FPassing clouds.12 mph46%29.80 "Hg5 mi
2:30 PM93 °FPassing clouds.12 mph44%29.83 "Hg5 mi
2:00 PM91 °FPassing clouds.12 mph46%29.83 "Hg4 mi
1:00 PM91 °FPassing clouds.12 mph49%29.86 "Hg4 mi
12:30 PM90 °FPassing clouds.5 mph52%29.89 "Hg4 mi
12:00 PM88 °FPassing clouds.5 mph52%29.89 "Hg4 mi
11:30 AM88 °FPassing clouds.6 mph52%29.89 "Hg4 mi
11:00 AM86 °FPassing clouds.8 mph59%29.92 "Hg4 mi
10:30 AM84 °FPassing clouds.7 mph62%29.92 "Hg4 mi
10:00 AM82 °FPassing clouds.8 mph66%29.92 "Hg4 mi
9:30 AM81 °FPassing clouds.6 mph70%29.92 "Hg4 mi
9:00 AM81 °FPassing clouds.5 mph74%29.92 "Hg4 mi
8:00 AM77 °FFog.5 mph83%29.92 "Hg2 mi
7:30 AM75 °FFog.6 mph89%29.92 "Hg2 mi
7:00 AM75 °FFog.6 mph89%29.89 "Hg2 mi
5:30 AM73 °FFog.6 mph89%29.86 "Hg2 mi
5:00 AM73 °FFog.7 mph89%29.86 "Hg2 mi
Weather by CustomWeather, © 2015

See weather overviewHow to use our weather pages